sat.trackr.live / text

‹ back to catalog

STARLINK-36623

NORAD 67644 · 2026-020AD

PAYLOAD ACTIVE UNKNOWN

§ Identity

Operator
Country
US
Launch date
2026-01-30
Launch site
AFETR
Launch vehicle
Mass (kg)
RCS (m²)

Purposes: comms

External: N2YO · Heavens-Above · Gunter

§ Orbital elements

Epoch: 2026-09-19T00:22:16.066272Z

Period
94.27 min
Inclination
43.0034°
Eccentricity
0.0001262
Mean motion
15.27586020 rev/d
Perigee alt
482.2 km
Apogee alt
483.9 km
Semi-major
6,861.2 km
B*
3.4971e-4
RAAN
127.6837°
Arg perigee
267.7802°
Mean anomaly
92.2905°
Rev number
3,568

§ Raw data

STARLINK-366231 67644U 26020AD  26262.01546373  .00009375  00000+0  34971-3 0  99942 67644  43.0034 127.6837 0001262 267.7802  92.2905 15.27586020 35685

JSON: /api/v1/satellites/67644 · /tle

For live sub-satellite position, see the globe view (requires WebGL).

§ Visibility from observer

Set your observer location to see the next 7 days of passes ≥ 10°. The values pass through the URL so the page stays shareable.

No JS? Fill the form by hand. The geolocation button needs JavaScript.